Content
SEND FEEDBACK

Daily
Averages
Monthly
Summary
Canada

VANCOUVER, BRITISH COLUMBIA


Home > North America > Canada > British Columbia
Elevation: 7 feet     Latitude: 49 11N     Longitude: 123 10W

WEATHER
 
SELECT A DAY
Number of Records: 254,811;   Date Range: 5/15/97 - 12/16/14
 
SHARE

PRINT THIS DATA

[ ← Previous Day ]
WEATHER ALMANAC - MAY 4, 2013
[ Next Day → ]
[ °C ]   °F
Weather ElementAverageHighLow
Temperature55.6 °F64.4 °F (5:55 pm)48.2 °F (5:35 am)
Dewpoint47 °F50 °F (10:35 am)42.8 °F (6:35 pm)
Humidity74.6 %94 % (4:35 am)45 % (6:35 pm)
Barometer30.18 in30.27 in (1:15 am)30.01 in (11:55 pm)
Wind Speed4.5 mph13.8 mph (8:15 am)
Weather ElementAverage
Visibility9.8 mi
Wind DirectionSSW (203.9 °)

Weather ElementTotal
Precipitation---
Heating Degree Days8.7 (Base 65)
Growing Degree Days6.3 (Base 50)
Averaged from 64 records on May 4, 2013
WEATHER CONDITIONS BREAKOUT
WIND DIRECTION BREAKOUT
WEATHER BY HOUR - MAY 4, 2013
[ °C ]   °F
Local TimeTemperatureDewpointHumidityBarometerVisibilityWind DirectionWind SpeedGust SpeedPrecipitationEventsConditions
12:35 AM50.0 °F44.6 °F82 %30.26 in8.0 miCalmClear
12:55 AM53.6 °F46.4 °F77 %30.26 in10.0 miNNW (340°)4.6 mphClear
1:15 AM55.4 °F48.2 °F77 %30.27 in10.0 miNorth (10°)4.6 mphClear
1:35 AM53.6 °F48.2 °F82 %30.27 in10.0 miNNW (340°)4.6 mphClear
1:55 AM53.6 °F48.2 °F82 %30.26 in10.0 miCalmClear
2:15 AM51.8 °F48.2 °F88 %30.27 in10.0 miENE (60°)3.5 mphClear
2:35 AM51.8 °F48.2 °F88 %30.26 in10.0 miCalmClear
2:55 AM51.8 °F48.2 °F88 %30.26 in10.0 miCalmClear
3:15 AM51.8 °F48.2 °F88 %30.25 in10.0 miNNW (340°)3.5 mphClear
3:35 AM51.8 °F48.2 °F88 %30.25 in10.0 miNNW (340°)3.5 mphClear
3:55 AM51.8 °F48.2 °F88 %30.26 in10.0 miNorth (350°)9.2 mphClear
4:15 AM51.8 °F48.2 °F88 %30.26 in10.0 miNorth (350°)5.8 mphClear
4:35 AM50.0 °F48.2 °F94 %30.26 in10.0 miCalmClear
4:55 AM50.0 °F48.2 °F94 %30.26 in10.0 miCalmClear
5:15 AM50.0 °F48.2 °F94 %30.26 in10.0 miCalmClear
5:35 AM48.2 °F46.4 °F93 %30.26 in10.0 miCalmClear
5:55 AM50.0 °F48.2 °F94 %30.26 in9.0 miNorth (350°)5.8 mphClear
6:15 AM50.0 °F48.2 °F94 %30.26 in9.0 miNorth (360°)5.8 mphClear
6:35 AM50.0 °F48.2 °F94 %30.26 in9.0 miNorth (360°)10.4 mphClear
6:55 AM50.0 °F48.2 °F94 %30.27 in9.0 miNorth (360°)9.2 mphClear
7:15 AM51.8 °F48.2 °F88 %30.27 in10.0 miNorth (360°)9.2 mphClear
7:35 AM51.8 °F48.2 °F88 %30.27 in9.0 miNorth (350°)10.4 mphClear
7:55 AM51.8 °F48.2 °F88 %30.26 in9.0 miNorth (350°)12.7 mphClear
8:15 AM53.6 °F48.2 °F82 %30.27 in9.0 miNorth (350°)13.8 mphClear
9:15 AM53.6 °F48.2 °F82 %30.27 in9.0 miNorth (360°)8.1 mphClear
9:35 AM53.6 °F48.2 °F82 %30.27 in9.0 miNorth (350°)6.9 mphClear
9:55 AM53.6 °F48.2 °F82 %30.26 in9.0 miNNW (340°)5.8 mphClear
10:15 AM53.6 °F48.2 °F82 %30.26 in9.0 miNW (320°)8.1 mphClear
10:35 AM55.4 °F50.0 °F82 %30.26 in8.0 miNNW (340°)6.9 mphClear
10:55 AM55.4 °F50.0 °F82 %30.25 in10.0 miWNW (300°)9.2 mphClear
11:15 AM55.4 °F48.2 °F77 %30.25 in10.0 miNNW (330°)11.5 mphClear
11:35 AM55.4 °F50.0 °F82 %30.25 in10.0 miWNW (300°)4.6 mphClear
12:15 PM55.4 °F48.2 °F77 %30.24 in10.0 miNNW (330°)10.4 mphClear
12:35 PM55.4 °F48.2 °F77 %30.23 in10.0 miNNW (340°)8.1 mphClear
12:55 PM57.2 °F48.2 °F72 %30.23 in10.0 miNW (310°)6.9 mphClear
1:15 PM57.2 °F48.2 °F72 %30.22 in10.0 miNW (320°)4.6 mphClear
1:55 PM59.0 °F46.4 °F63 %30.20 in10.0 miNNW (330°)8.1 mphClear
2:15 PM59.0 °F46.4 °F63 %30.18 in10.0 miNNW (340°)8.1 mphClear
2:35 PM59.0 °F48.2 °F67 %30.17 in10.0 miNorth (350°)5.8 mphClear
2:55 PM59.0 °F46.4 °F63 %30.17 in10.0 miNW (320°)8.1 mphClear
3:15 PM59.0 °F48.2 °F67 %30.16 in10.0 miNNW (340°)9.2 mphClear
4:15 PM62.6 °F46.4 °F55 %30.14 in10.0 miNorth (360°)5.8 mphClear
4:35 PM62.6 °F46.4 °F55 %30.13 in10.0 miNNW (340°)5.8 mphClear
4:55 PM62.6 °F46.4 °F55 %30.12 in10.0 miNNW (330°)8.1 mphClear
5:15 PM62.6 °F44.6 °F52 %30.11 in10.0 miNorth (350°)4.6 mphClear
5:35 PM62.6 °F46.4 °F55 %30.10 in10.0 miNorth (360°)4.6 mphClear
5:55 PM64.4 °F44.6 °F49 %30.10 in10.0 miNorth (350°)3.5 mphClear
6:15 PM64.4 °F44.6 °F49 %30.09 in10.0 miCalmClear
6:35 PM64.4 °F42.8 °F45 %30.08 in10.0 miNorth (360°)4.6 mphClear
6:55 PM64.4 °F42.8 °F45 %30.07 in10.0 miCalmClear
7:15 PM64.4 °F44.6 °F49 %30.06 in10.0 miCalmClear
7:35 PM62.6 °F44.6 °F52 %30.05 in10.0 miNorth (10°)4.6 mphClear
7:55 PM62.6 °F44.6 °F52 %30.05 in10.0 miCalmClear
8:15 PM60.8 °F44.6 °F55 %30.05 in10.0 miCalmClear
8:35 PM57.2 °F46.4 °F67 %30.04 in10.0 miCalmClear
8:55 PM55.4 °F44.6 °F67 %30.04 in10.0 miCalmClear
9:15 PM55.4 °F46.4 °F72 %30.04 in10.0 miCalmClear
9:55 PM53.6 °F44.6 °F72 %30.03 in10.0 miCalmClear
10:15 PM53.6 °F44.6 °F72 %30.03 in10.0 miCalmClear
10:35 PM53.6 °F46.4 °F77 %30.02 in10.0 miCalmClear
10:55 PM53.6 °F46.4 °F77 %30.02 in10.0 miCalmClear
11:15 PM53.6 °F46.4 °F77 %30.02 in10.0 miCalmClear
11:35 PM53.6 °F44.6 °F72 %30.02 in10.0 miCalmClear
11:55 PM55.4 °F44.6 °F67 %30.01 in10.0 miCalmClear
Hourly data recorded from CZBB, located miles away from Vancouver, British Columbia







STORIES FROM OUR PARTNERS